logo tempoitalia

Diretta Meteo Calvi, Francialunedì 31 agosto ore 07:00

Mappa
Sereno 23 °C Sereno 24 Ore: T.min 22 T.max 33
Ponente Sud Km/h 13 Punto di rugiada: 13 °C Umidità: 53% Visibilità: 10 Km
Il sole sorge alle: 06:48 Il sole tramonta alle: 20:01
31 Agosto 2026 07:00 tempo osservato: Sereno Sereno 23 53 1016 vento: Nord S 13
31 Agosto 2026 06:30 tempo osservato: Sereno Sereno 25 47 1016 vento: Nord S 14.8
31 Agosto 2026 06:00 tempo osservato: Sereno Sereno 25 47 1016 vento: Nord S 18.5
31 Agosto 2026 05:30 tempo osservato: Sereno Sereno 23 56 1016 vento: Nord S 18.5
31 Agosto 2026 05:00 tempo osservato: Sereno Sereno 23 56 1016 vento: Nord S 16.7
31 Agosto 2026 04:30 tempo osservato: Sereno Sereno 23 60 1016 vento: Nord S 18.5
31 Agosto 2026 04:00 tempo osservato: Sereno Sereno 24 57 1016 vento: Nord S 13
31 Agosto 2026 03:30 tempo osservato: Sereno Sereno 22 68 1016 vento: Nord S 16.7
31 Agosto 2026 03:00 tempo osservato: Sereno Sereno 22 68 1016 vento: Nord S 13
31 Agosto 2026 02:30 tempo osservato: Sereno Sereno 22 73 1016 vento: Nord S 11.1
31 Agosto 2026 02:00 tempo osservato: Sereno Sereno 24 64 1016 vento: Nord S 7.4
31 Agosto 2026 01:30 tempo osservato: Sereno Sereno 23 73 1016 vento: Nord S 18.5
31 Agosto 2026 01:00 tempo osservato: Sereno Sereno 22 73 1016 vento: Nord S 14.8
31 Agosto 2026 00:30 tempo osservato: Sereno Sereno 22 78 1016 vento: Nord O/SO 9.3
31 Agosto 2026 00:00 tempo osservato: Sereno Sereno 22 78 1016 vento: Nord SO 7.4
30 Agosto 2026 23:30 tempo osservato: Sereno Sereno 23 73 1016 vento: Nord N 1.8
30 Agosto 2026 23:00 tempo osservato: Sereno Sereno 23 73 1016 vento: Nord N 1.8
30 Agosto 2026 22:30 tempo osservato: Sereno Sereno 24 73 1016 vento: Nord S/SE 9.3
30 Agosto 2026 22:00 tempo osservato: Sereno Sereno 25 69 1016 vento: Nord N 3.7
30 Agosto 2026 21:30 tempo osservato: Sereno Sereno 25 69 1015 vento: Nord S/SO 18.5
30 Agosto 2026 21:00 tempo osservato: Sereno Sereno 27 61 1015 vento: Nord S/SO 18.5
30 Agosto 2026 20:30 tempo osservato: Sereno Sereno 27 61 1015 vento: Nord S/SO 18.5
30 Agosto 2026 20:00 tempo osservato: Sereno Sereno 28 58 1014 vento: Nord SO 20.3
30 Agosto 2026 19:30 tempo osservato: Sereno Sereno 28 58 1014 vento: Nord S/SO 20.3
30 Agosto 2026 19:00 tempo osservato: Sereno Sereno 29 54 1014 vento: Nord SO 25.9
30 Agosto 2026 18:30 tempo osservato: Sereno Sereno 30 48 1014 vento: Nord S/SO 16.7
30 Agosto 2026 18:00 tempo osservato: Sereno Sereno 31 45 1014 vento: Nord E/SE 11.1
30 Agosto 2026 17:30 tempo osservato: Sereno Sereno 32 38 1014 vento: Nord O/SO 20.3
30 Agosto 2026 17:00 tempo osservato: Sereno Sereno 32 35 1014 vento: Nord O 14.8
30 Agosto 2026 16:30 tempo osservato: Sereno Sereno 32 35 1013 vento: Nord O/SO 18.5
30 Agosto 2026 16:00 tempo osservato: Sereno Sereno 32 35 1014 vento: Nord O/SO 29.6
30 Agosto 2026 15:30 tempo osservato: Sereno Sereno 32 38 1014 vento: Nord O/SO 22.2
30 Agosto 2026 15:00 tempo osservato: Sereno Sereno 33 31 1014 vento: Nord O 31.5
30 Agosto 2026 14:30 tempo osservato: Sereno Sereno 33 33 1014 vento: Nord O/SO 29.6
30 Agosto 2026 14:00 tempo osservato: Sereno Sereno 33 31 1014 vento: Nord O/SO 31.5
30 Agosto 2026 13:30 tempo osservato: Sereno Sereno 33 29 1014 vento: Nord O/SO 31.5
30 Agosto 2026 13:00 tempo osservato: Sereno Sereno 33 29 1014 vento: Nord O 29.6
30 Agosto 2026 12:30 tempo osservato: Sereno Sereno 32 31 1014 vento: Nord O 24
30 Agosto 2026 12:00 tempo osservato: Sereno Sereno 32 33 1015 vento: Nord O/SO 22.2
30 Agosto 2026 11:30 tempo osservato: Sereno Sereno 32 33 1015 vento: Nord O/SO 18.5
30 Agosto 2026 11:00 tempo osservato: Sereno Sereno 32 33 1015 vento: Nord O/SO 18.5
30 Agosto 2026 10:30 tempo osservato: Sereno Sereno 31 33 1015 vento: Nord O/SO 16.7
30 Agosto 2026 10:00 tempo osservato: Sereno Sereno 31 31 1015 vento: Nord S/SO 22.2
30 Agosto 2026 09:30 tempo osservato: Sereno Sereno 30 33 1015 vento: Nord S/SO 16.7
30 Agosto 2026 09:00 tempo osservato: Sereno Sereno 29 37 1015 vento: Nord SO 20.3
30 Agosto 2026 08:30 tempo osservato: Sereno Sereno 27 44 1015 vento: Nord SO 22.2
30 Agosto 2026 08:00 tempo osservato: Sereno Sereno 26 50 1015 vento: Nord S/SO 18.5